Find Starlink 3176

NORAD ID: 51106 Int'l Des: 2022-005 Owner: SPXS Country: US Constellation: starlink operational
LEOCIRCULAR

現在のビュー

3D地球を読み込み中...

About Starlink 3176

Starlink 3176 (NORAD 51106) is a starlink constellation satellite (v1.5) launched Jan 19, 2022 by SPXS of US. It operates in LEO, CIRCULAR orbit with a mass of 297.00 kg.

Starlink 3176について

説明を読み込み中...

次回通過

Passes for default location (London). Set your location on the main map for personalized predictions.

高度履歴

Loading altitude history...

軌道要素

1 51106U 22005C 26171.43004152 .00000212 00000-0 31386-4 0 9998
2 51106 53.1587 187.7847 0001141 85.0277 275.0845 15.08833183244384
Epoch: Jun 20, 2026 • Age: 28 hours

現在のステータス

高度 541.0 km
速度 7.59 km/s
衛星直下点 -2.09°S, 117.94°W
打ち上げ日 Jan 19, 2022
運用期間 4.4 years
タイプ internet

技術仕様

分類 Payload
質量 297.00 kg
乾燥質量 275.00 kg
総質量 297.00 kg
長さ 0.20 m
直径 2.80 m
スパン 9.00 m
形状 Box + pan
製造者 SPXS
バスタイプ Starlink
フェーズステータス In Orbit
所有者/国 SPXS/US

Most Searched